Елизово

Беларусь     53°23′57″N   29°00′16″E
темп.,
°C
ветер,
м/с
пор.,
м/с
влажн.,
%
обл.,
%
осадки,
мм/ч
давл.,
гПа
погр.,
м
8 марта, пн
пн800:00−3з5128983 0.1 1005526
03:00−4з5118670 0.1 1006582
06:00−5з5118919 0.0 1006563
09:00−5зсз598545 0.0 1007638
12:00−2сз5672100 0.3 10091060
15:00−2ссз685994 0.5 10101498
18:00−4сз587299 0.1 10121115
21:00−5ссз398497 0.1 1015569
9 марта, вт
вт900:00−6с3783100 0.1 1017561
03:00−8ссз2686100 0.1 1018331
06:00−9ссз268940 0.0 1019230
09:00−8ссз368520 0.0 1021363
12:00−5ссз456818 0.0 1022821
15:00−4ссз355713 0.0 10231129
18:00−4сз24660 0.0 1022264
21:00−6з23784 0.0 102447
10 марта, ср
ср1000:00−7з238363 0.0 102556
03:00−7зюз358661 0.0 1024128
06:00−8зюз359075 0.0 1024132
09:00−7зюз358477 0.0 1025210
12:00−3з356797 0.0 1025545
15:00−2зсз235799 0.0 1025876
18:00−2с1268100 0.0 102553
21:00−4всв2479100 0.0 1027103
11 марта, чт
чт1100:00−7вюв369199 0.0 1029273
03:00−8вюв369298 0.0 1029284
06:00−9юв3693100 0.0 1029268
09:00−10юв468899 0.1 1029255
12:00−6юв477750 0.0 1028354
15:00−3ююв587225 0.0 1026645
18:00−3юв6107838 0.0 1024775
21:00−5ююв7138169 0.0 1022642
12 марта, пт
пт1200:00−4ююв81474100 0.0 1020787
03:00−3ююв81571100 0.0 1016873
06:00−3ююв91681100 0.1 1012886
09:00−3ю101793100 1.1 1009828
12:000ю71396100 1.4 1007564
15:00+2ююз51198100 3.4 1006467
18:00+3зюз4119699 0.6 1007512
21:00+2зюз4119299 0.6 1009431